TimeCDT,TemperatureF,Dew PointF,Humidity,Sea Level PressureIn,VisibilityMPH,Wind Direction,Wind SpeedMPH,Gust SpeedMPH,PrecipitationIn,Events,Conditions,WindDirDegrees,DateUTC
12:52 AM,55.9,35.1,45,29.85,10.0,SW,19.6,26.5,N/A,,Clear,230,2012-10-04 05:52:00
1:07 AM,53.6,37.4,54,29.86,7.0,West,24.2,33.4,N/A,,Clear,260,2012-10-04 06:07:00
2:52 AM,48.9,39.9,71,29.91,9.0,West,20.7,34.5,N/A,,Scattered Clouds,270,2012-10-04 07:52:00
3:52 AM,46.9,37.9,71,29.93,9.0,WNW,24.2,32.2,N/A,,Partly Cloudy,290,2012-10-04 08:52:00
4:34 AM,46.4,37.4,71,29.96,10.0,WNW,24.2,34.5,N/A,,Mostly Cloudy,300,2012-10-04 09:34:00
4:52 AM,46.9,37.9,71,29.98,10.0,WNW,21.9,34.5,N/A,,Overcast,290,2012-10-04 09:52:00
5:52 AM,46.0,37.0,71,30.01,10.0,WNW,21.9,33.4,N/A,,Overcast,290,2012-10-04 10:52:00
6:26 AM,44.6,35.6,71,30.02,10.0,West,18.4,24.2,N/A,,Scattered Clouds,280,2012-10-04 11:26:00
6:52 AM,43.0,35.1,74,30.02,10.0,WNW,18.4,-,N/A,,Clear,290,2012-10-04 11:52:00
7:52 AM,43.0,33.1,68,30.08,10.0,WNW,21.9,34.5,N/A,,Mostly Cloudy,290,2012-10-04 12:52:00
8:52 AM,43.0,34.0,71,30.09,10.0,West,24.2,32.2,N/A,,Overcast,280,2012-10-04 13:52:00
9:52 AM,44.1,33.1,65,30.10,10.0,WNW,27.6,32.2,N/A,,Overcast,300,2012-10-04 14:52:00
10:52 AM,46.0,32.0,58,30.12,10.0,NW,27.6,33.4,N/A,,Overcast,310,2012-10-04 15:52:00
11:26 AM,48.2,32.0,54,30.12,10.0,NW,23.0,35.7,N/A,,Mostly Cloudy,320,2012-10-04 16:26:00
11:52 AM,48.9,32.0,52,30.15,10.0,NW,28.8,35.7,N/A,,Mostly Cloudy,310,2012-10-04 16:52:00
12:52 PM,52.0,30.9,45,30.16,10.0,WNW,26.5,33.4,N/A,,Mostly Cloudy,300,2012-10-04 17:52:00
1:52 PM,53.1,30.9,43,30.17,10.0,NW,24.2,33.4,N/A,,Partly Cloudy,310,2012-10-04 18:52:00
2:52 PM,53.1,30.9,43,30.18,10.0,NW,24.2,32.2,N/A,,Partly Cloudy,310,2012-10-04 19:52:00
3:52 PM,52.0,30.0,43,30.19,10.0,NW,21.9,31.1,N/A,,Clear,310,2012-10-04 20:52:00
4:52 PM,51.1,28.9,43,30.20,10.0,NW,23.0,28.8,N/A,,Partly Cloudy,310,2012-10-04 21:52:00
5:52 PM,48.9,28.9,46,30.22,10.0,NW,21.9,27.6,N/A,,Clear,310,2012-10-04 22:52:00
6:52 PM,46.9,28.0,48,30.24,10.0,NW,15.0,-,N/A,,Mostly Cloudy,320,2012-10-04 23:52:00
7:52 PM,46.0,28.0,50,30.26,10.0,NW,21.9,27.6,N/A,,Overcast,310,2012-10-05 00:52:00
8:52 PM,45.0,28.0,52,30.26,10.0,NW,20.7,-,N/A,,Overcast,310,2012-10-05 01:52:00
10:52 PM,42.1,26.1,53,30.26,10.0,NW,17.3,-,N/A,,Partly Cloudy,320,2012-10-05 03:52:00
11:52 PM,39.9,26.1,58,30.27,10.0,NW,13.8,-,N/A,,Partly Cloudy,310,2012-10-05 04:52:00